EDT,Max TemperatureF,Mean TemperatureF,Min TemperatureF,Max Dew PointF,MeanDew PointF,Min DewpointF,Max Humidity, Mean Humidity, Min Humidity, Max Sea Level PressureIn, Mean Sea Level PressureIn, Min Sea Level PressureIn, Max VisibilityMiles, Mean VisibilityMiles, Min VisibilityMiles, Max Wind SpeedMPH, Mean Wind SpeedMPH, Max Gust SpeedMPH,PrecipitationIn, CloudCover, Events, WindDirDegrees
2011-10-1,68,60,51,57,46,37,77,64,37,29.99,29.84,29.77,10,10,10,18,9,23,0.00,0,,316
2011-10-2,66,56,46,48,41,37,82,65,45,30.05,29.99,29.96,10,10,10,14,8,,0.00,1,,311
2011-10-3,73,60,46,46,41,37,87,66,27,30.15,30.08,30.04,10,10,10,14,2,,0.00,0,,316
2011-10-4,73,62,50,54,46,41,88,69,44,30.23,30.17,30.13,10,10,10,16,3,,0.00,0,,344
2011-10-5,75,63,51,55,50,46,88,76,47,30.26,30.20,30.16,10,10,10,12,2,,0.00,0,,55
2011-10-6,77,65,53,57,52,48,88,72,44,30.29,30.23,30.20,15,10,8,14,3,,0.00,0,,27
2011-10-7,78,68,57,61,56,50,88,74,47,30.37,30.31,30.24,10,10,10,14,9,23,0.00,0,,36
2011-10-8,77,68,59,59,55,48,88,70,41,30.42,30.36,30.31,10,10,10,15,8,18,0.00,1,,28
2011-10-9,78,70,62,64,60,55,83,76,61,30.30,30.25,30.17,10,10,7,23,12,31,0.00,4,Rain,38
2011-10-10,82,75,68,68,64,63,88,81,54,30.16,30.07,29.96,10,9,5,20,12,29,0.00,6,Rain,42
2011-10-11,73,68,64,70,64,61,94,86,73,29.95,29.90,29.84,10,8,4,23,13,30,0.35,8,Rain,47
2011-10-12,80,74,69,73,69,64,94,87,74,29.85,29.81,29.75,10,8,0,16,6,,0.01,5,,143
2011-10-13,80,76,69,72,68,63,89,81,58,29.78,29.73,29.65,10,10,8,17,6,16,0.00,5,,213
2011-10-14,77,68,60,61,55,45,88,70,34,29.90,29.73,29.65,10,10,7,16,10,21,0.08,2,,252
2011-10-15,82,68,55,64,49,43,72,56,25,30.07,29.96,29.90,10,10,10,17,8,22,0.00,0,,259
2011-10-16,73,62,50,54,48,43,76,61,36,30.17,30.08,30.04,10,10,10,12,8,,0.00,0,,255
2011-10-17,78,68,57,64,56,52,83,71,50,30.04,29.98,29.90,10,10,10,16,7,,0.00,0,,220
2011-10-18,78,68,57,70,62,54,94,84,65,29.90,29.82,29.60,10,6,0,12,5,17,0.00,3,Fog-Rain,148
2011-10-19,84,70,53,72,65,39,94,79,54,29.64,29.49,29.36,10,9,2,26,11,32,0.07,6,Rain,200
2011-10-20,64,56,48,43,40,39,82,61,45,30.02,29.81,29.65,10,10,10,17,12,25,0.00,0,,243
2011-10-21,66,55,44,46,40,37,82,71,43,30.11,30.05,30.02,10,10,10,12,6,,0.00,0,,254
2011-10-22,66,55,44,48,42,37,87,72,46,30.11,30.07,30.05,10,10,10,12,3,,0.00,1,,339
2011-10-23,71,60,48,54,47,43,88,73,43,30.12,30.07,30.05,10,10,10,12,6,,0.00,1,,360
2011-10-24,71,62,53,55,49,46,82,70,43,30.10,30.06,30.02,10,10,10,14,6,,0.00,3,,341
2011-10-25,71,61,51,54,48,45,88,71,46,30.24,30.15,29.91,10,10,4,17,5,23,0.00,0,,325
2011-10-26,73,60,46,59,49,39,87,75,47,30.18,30.10,29.98,10,7,1,17,2,,0.00,0,Fog,210
2011-10-27,80,70,59,57,54,54,82,68,39,29.98,29.93,29.83,10,10,10,16,7,24,0.00,0,,240
2011-10-28,64,58,51,55,52,46,88,78,68,30.04,29.96,29.90,13,10,5,18,6,23,0.00,4,,360
2011-10-29,59,52,46,46,42,30,87,71,48,30.13,29.94,29.87,10,8,1,21,10,29,0.00,5,,341
2011-10-30,60,46,33,36,31,27,81,59,36,30.32,30.22,30.13,10,10,10,12,6,,0.00,0,,360
2011-10-31,64,55,46,55,41,34,77,68,58,30.30,30.22,30.11,10,10,10,21,11,24,0.00,3,,14